Year,Month,Day,Hour,Minute,Value (Times are PST for windgust in km/hr)
2018,01,23,00,00,16.10
2018,01,23,00,01,8.10
2018,01,23,00,02,8.10
2018,01,23,00,03,8.10
2018,01,23,00,04,8.10
2018,01,23,00,05,17.70
2018,01,23,00,06,16.10
2018,01,23,00,07,11.30
2018,01,23,00,08,12.90
2018,01,23,00,09,12.90
2018,01,23,00,10,14.50
2018,01,23,00,11,12.90
2018,01,23,00,12,9.60
2018,01,23,00,13,12.90
2018,01,23,00,14,14.50
2018,01,23,00,15,9.60
2018,01,23,00,16,14.50
2018,01,23,00,17,12.90
2018,01,23,00,18,11.30
2018,01,23,00,19,12.90
2018,01,23,00,20,9.60
2018,01,23,00,21,12.90
2018,01,23,00,22,14.50
2018,01,23,00,23,11.30
2018,01,23,00,24,12.90
2018,01,23,00,25,14.50
2018,01,23,00,26,17.70
2018,01,23,00,27,16.10
2018,01,23,00,28,19.30
2018,01,23,00,29,24.20
2018,01,23,00,30,17.70
2018,01,23,00,31,17.70
2018,01,23,00,32,14.50
2018,01,23,00,33,16.10
2018,01,23,00,34,19.30
2018,01,23,00,35,20.90
2018,01,23,00,36,16.10
2018,01,23,00,37,16.10
2018,01,23,00,38,20.90
2018,01,23,00,39,17.70
2018,01,23,00,40,14.50
2018,01,23,00,41,17.70
2018,01,23,00,42,20.90
2018,01,23,00,43,17.70
2018,01,23,00,44,14.50
2018,01,23,00,45,16.10
2018,01,23,00,46,19.30
2018,01,23,00,47,14.50
2018,01,23,00,48,24.20
2018,01,23,00,49,20.90
2018,01,23,00,50,14.50
2018,01,23,00,51,17.70
2018,01,23,00,52,14.50
2018,01,23,00,53,12.90
2018,01,23,00,54,16.10
2018,01,23,00,55,19.30
2018,01,23,00,56,16.10
2018,01,23,00,57,20.90
2018,01,23,00,58,20.90
2018,01,23,00,59,20.90
2018,01,23,01,00,17.70
2018,01,23,01,01,20.90
2018,01,23,01,02,19.30
2018,01,23,01,03,19.30
2018,01,23,01,04,20.90
2018,01,23,01,05,27.40
2018,01,23,01,06,17.70
2018,01,23,01,07,29.00
2018,01,23,01,08,22.50
2018,01,23,01,09,29.00
2018,01,23,01,10,20.90
2018,01,23,01,11,25.70
2018,01,23,01,12,19.30
2018,01,23,01,13,16.10
2018,01,23,01,14,22.50
2018,01,23,01,15,24.20
2018,01,23,01,16,24.20
2018,01,23,01,17,17.70
2018,01,23,01,18,17.70
2018,01,23,01,19,25.70
2018,01,23,01,20,19.30
2018,01,23,01,21,16.10
2018,01,23,01,22,19.30
2018,01,23,01,23,12.90
2018,01,23,01,24,24.20
2018,01,23,01,25,19.30
2018,01,23,01,26,22.50
2018,01,23,01,27,27.40
2018,01,23,01,28,17.70
2018,01,23,01,29,16.10
2018,01,23,01,30,14.50
2018,01,23,01,31,17.70
2018,01,23,01,32,16.10
2018,01,23,01,33,22.50
2018,01,23,01,34,22.50
2018,01,23,01,35,22.50
2018,01,23,01,36,22.50
2018,01,23,01,37,19.30
2018,01,23,01,38,11.30
2018,01,23,01,39,12.90
2018,01,23,01,40,25.70
2018,01,23,01,41,17.70
2018,01,23,01,42,14.50
2018,01,23,01,43,16.10
2018,01,23,01,44,20.90
2018,01,23,01,45,25.70
2018,01,23,01,46,25.70
2018,01,23,01,47,22.50
2018,01,23,01,48,16.10
2018,01,23,01,49,29.00
2018,01,23,01,50,19.30
2018,01,23,01,51,29.00
2018,01,23,01,52,32.20
2018,01,23,01,53,29.00
2018,01,23,01,54,32.20
2018,01,23,01,55,35.40
2018,01,23,01,56,37.00
2018,01,23,01,57,41.80
2018,01,23,01,58,43.50
2018,01,23,01,59,43.50
2018,01,23,02,00,40.20
2018,01,23,02,01,38.60
2018,01,23,02,02,32.20
2018,01,23,02,03,37.00
2018,01,23,02,04,37.00
2018,01,23,02,05,51.50
2018,01,23,02,06,40.20
2018,01,23,02,07,46.70
2018,01,23,02,08,45.10
2018,01,23,02,09,38.60
2018,01,23,02,10,37.00
2018,01,23,02,11,45.10
2018,01,23,02,12,37.00
2018,01,23,02,13,45.10
2018,01,23,02,14,33.80
2018,01,23,02,15,29.00
2018,01,23,02,16,38.60
2018,01,23,02,17,27.40
2018,01,23,02,18,32.20
2018,01,23,02,19,25.70
2018,01,23,02,20,30.60
2018,01,23,02,21,35.40
2018,01,23,02,22,30.60
2018,01,23,02,23,27.40
2018,01,23,02,24,29.00
2018,01,23,02,25,33.80
2018,01,23,02,26,38.60
2018,01,23,02,27,32.20
2018,01,23,02,28,40.20
2018,01,23,02,29,37.00
2018,01,23,02,30,40.20
2018,01,23,02,31,35.40
2018,01,23,02,32,37.00
2018,01,23,02,33,29.00
2018,01,23,02,34,38.60
2018,01,23,02,35,40.20
2018,01,23,02,36,30.60
2018,01,23,02,37,38.60
2018,01,23,02,38,32.20
2018,01,23,02,39,30.60
2018,01,23,02,40,32.20
2018,01,23,02,41,40.20
2018,01,23,02,42,37.00
2018,01,23,02,43,40.20
2018,01,23,02,44,46.70
2018,01,23,02,45,54.70
2018,01,23,02,46,45.10
2018,01,23,02,47,41.80
2018,01,23,02,48,32.20
2018,01,23,02,49,24.20
2018,01,23,02,50,37.00
2018,01,23,02,51,51.50
2018,01,23,02,52,41.80
2018,01,23,02,53,53.10
2018,01,23,02,54,66.00
2018,01,23,02,55,41.80
2018,01,23,02,56,48.30
2018,01,23,02,57,53.10
2018,01,23,02,58,53.10
2018,01,23,02,59,61.20
2018,01,23,03,00,49.90
2018,01,23,03,01,46.70
2018,01,23,03,02,48.30
2018,01,23,03,03,54.70
2018,01,23,03,04,49.90
2018,01,23,03,05,46.70
2018,01,23,03,06,41.80
2018,01,23,03,07,56.30
2018,01,23,03,08,49.90
2018,01,23,03,09,62.70
2018,01,23,03,10,57.90
2018,01,23,03,11,56.30
2018,01,23,03,12,57.90
2018,01,23,03,13,57.90
2018,01,23,03,14,49.90
2018,01,23,03,15,54.70
2018,01,23,03,16,56.30
2018,01,23,03,17,56.30
2018,01,23,03,18,45.10
2018,01,23,03,19,45.10
2018,01,23,03,20,54.70
2018,01,23,03,21,56.30
2018,01,23,03,22,53.10
2018,01,23,03,23,56.30
2018,01,23,03,24,56.30
2018,01,23,03,25,48.30
2018,01,23,03,26,37.00
2018,01,23,03,27,45.10
2018,01,23,03,28,59.50
2018,01,23,03,29,53.10
2018,01,23,03,30,53.10
2018,01,23,03,31,48.30
2018,01,23,03,32,45.10
2018,01,23,03,33,43.50
2018,01,23,03,34,54.70
2018,01,23,03,35,49.90
2018,01,23,03,36,40.20
2018,01,23,03,37,46.70
2018,01,23,03,38,38.60
2018,01,23,03,39,30.60
2018,01,23,03,40,32.20
2018,01,23,03,41,32.20
2018,01,23,03,42,30.60
2018,01,23,03,43,33.80
2018,01,23,03,44,30.60
2018,01,23,03,45,43.50
2018,01,23,03,46,33.80
2018,01,23,03,47,37.00
2018,01,23,03,48,41.80
2018,01,23,03,49,53.10
2018,01,23,03,50,40.20
2018,01,23,03,51,45.10
2018,01,23,03,52,33.80
2018,01,23,03,53,30.60
2018,01,23,03,54,45.10
2018,01,23,03,55,45.10
2018,01,23,03,56,38.60
2018,01,23,03,57,51.50
2018,01,23,03,58,38.60
2018,01,23,03,59,49.90
2018,01,23,04,00,38.60
2018,01,23,04,01,32.20
2018,01,23,04,02,51.50
2018,01,23,04,03,45.10
2018,01,23,04,04,29.00
2018,01,23,04,05,32.20
2018,01,23,04,06,45.10
2018,01,23,04,07,41.80
2018,01,23,04,08,54.70
2018,01,23,04,09,33.80
2018,01,23,04,10,37.00
2018,01,23,04,11,40.20
2018,01,23,04,12,37.00
2018,01,23,04,13,37.00
2018,01,23,04,14,38.60
2018,01,23,04,15,51.50
2018,01,23,04,16,37.00
2018,01,23,04,17,40.20
2018,01,23,04,18,46.70
2018,01,23,04,19,41.80
2018,01,23,04,20,41.80
2018,01,23,04,21,41.80
2018,01,23,04,22,45.10
2018,01,23,04,23,59.50
2018,01,23,04,24,54.70
2018,01,23,04,25,49.90
2018,01,23,04,26,56.30
2018,01,23,04,27,56.30
2018,01,23,04,28,45.10
2018,01,23,04,29,41.80
2018,01,23,04,30,46.70
2018,01,23,04,31,59.50
2018,01,23,04,32,45.10
2018,01,23,04,33,53.10
2018,01,23,04,34,57.90
2018,01,23,04,35,46.70
2018,01,23,04,36,53.10
2018,01,23,04,37,46.70
2018,01,23,04,38,46.70
2018,01,23,04,39,40.20
2018,01,23,04,40,54.70
2018,01,23,04,41,45.10
2018,01,23,04,42,57.90
2018,01,23,04,43,53.10
2018,01,23,04,44,46.70
2018,01,23,04,45,41.80
2018,01,23,04,46,43.50
2018,01,23,04,47,49.90
2018,01,23,04,48,45.10
2018,01,23,04,49,30.60
2018,01,23,04,50,38.60
2018,01,23,04,51,45.10
2018,01,23,04,52,35.40
2018,01,23,04,53,48.30
2018,01,23,04,54,43.50
2018,01,23,04,55,40.20
2018,01,23,04,56,35.40
2018,01,23,04,57,33.80
2018,01,23,04,58,33.80
2018,01,23,04,59,38.60
2018,01,23,05,00,46.70
2018,01,23,05,01,40.20
2018,01,23,05,02,32.20
2018,01,23,05,03,38.60
2018,01,23,05,04,37.00
2018,01,23,05,05,37.00
2018,01,23,05,06,40.20
2018,01,23,05,07,40.20
2018,01,23,05,08,37.00
2018,01,23,05,09,37.00
2018,01,23,05,10,41.80
2018,01,23,05,11,37.00
2018,01,23,05,12,33.80
2018,01,23,05,13,38.60
2018,01,23,05,14,35.40
2018,01,23,05,15,41.80
2018,01,23,05,16,46.70
2018,01,23,05,17,37.00
2018,01,23,05,18,35.40
2018,01,23,05,19,38.60
2018,01,23,05,20,37.00
2018,01,23,05,21,35.40
2018,01,23,05,22,38.60
2018,01,23,05,23,32.20
2018,01,23,05,24,41.80
2018,01,23,05,25,59.50
2018,01,23,05,26,53.10
2018,01,23,05,27,78.80
2018,01,23,05,28,75.60
2018,01,23,05,29,66.00
2018,01,23,05,30,56.30
2018,01,23,05,31,67.60
2018,01,23,05,32,67.60
2018,01,23,05,33,62.70
2018,01,23,05,34,67.60
2018,01,23,05,35,48.30
2018,01,23,05,36,49.90
2018,01,23,05,37,59.50
2018,01,23,05,38,49.90
2018,01,23,05,39,66.00
2018,01,23,05,40,72.40
2018,01,23,05,41,61.20
2018,01,23,05,42,51.50
2018,01,23,05,43,46.70
2018,01,23,05,44,45.10
2018,01,23,05,45,57.90
2018,01,23,05,46,53.10
2018,01,23,05,47,66.00
2018,01,23,05,48,57.90
2018,01,23,05,49,49.90
2018,01,23,05,50,59.50
2018,01,23,05,51,62.70
2018,01,23,05,52,69.20
2018,01,23,05,53,66.00
2018,01,23,05,54,66.00
2018,01,23,05,55,56.30
2018,01,23,05,56,66.00
2018,01,23,05,57,53.10
2018,01,23,05,58,51.50
2018,01,23,05,59,56.30
2018,01,23,06,00,56.30
2018,01,23,06,01,49.90
2018,01,23,06,02,57.90
2018,01,23,06,03,57.90
2018,01,23,06,04,66.00
2018,01,23,06,05,72.40
2018,01,23,06,06,69.20
2018,01,23,06,07,61.20
2018,01,23,06,08,53.10
2018,01,23,06,09,57.90
2018,01,23,06,10,62.70
2018,01,23,06,11,51.50
2018,01,23,06,12,66.00
2018,01,23,06,13,67.60
2018,01,23,06,14,69.20
2018,01,23,06,15,61.20
2018,01,23,06,16,56.30
2018,01,23,06,17,59.50
2018,01,23,06,18,59.50
2018,01,23,06,19,45.10
2018,01,23,06,20,57.90
2018,01,23,06,21,48.30
2018,01,23,06,22,64.40
2018,01,23,06,23,62.70
2018,01,23,06,24,57.90
2018,01,23,06,25,54.70
2018,01,23,06,26,43.50
2018,01,23,06,27,64.40
2018,01,23,06,28,70.80
2018,01,23,06,29,67.60
2018,01,23,06,30,51.50
2018,01,23,06,31,49.90
2018,01,23,06,32,53.10
2018,01,23,06,33,46.70
2018,01,23,06,34,53.10
2018,01,23,06,35,59.50
2018,01,23,06,36,67.60
2018,01,23,06,37,56.30
2018,01,23,06,38,61.20
2018,01,23,06,39,57.90
2018,01,23,06,40,62.70
2018,01,23,06,41,54.70
2018,01,23,06,42,56.30
2018,01,23,06,43,59.50
2018,01,23,06,44,62.70
2018,01,23,06,45,57.90
2018,01,23,06,46,57.90
2018,01,23,06,47,56.30
2018,01,23,06,48,43.50
2018,01,23,06,49,43.50
2018,01,23,06,50,49.90
2018,01,23,06,51,51.50
2018,01,23,06,52,51.50
2018,01,23,06,53,53.10
2018,01,23,06,54,59.50
2018,01,23,06,55,41.80
2018,01,23,06,56,48.30
2018,01,23,06,57,43.50
2018,01,23,06,58,38.60
2018,01,23,06,59,59.50
2018,01,23,07,00,48.30
2018,01,23,07,01,53.10
2018,01,23,07,02,54.70
2018,01,23,07,03,67.60
2018,01,23,07,04,56.30
2018,01,23,07,05,51.50
2018,01,23,07,06,49.90
2018,01,23,07,07,48.30
2018,01,23,07,08,56.30
2018,01,23,07,09,59.50
2018,01,23,07,10,59.50
2018,01,23,07,11,66.00
2018,01,23,07,12,51.50
2018,01,23,07,13,56.30
2018,01,23,07,14,51.50
2018,01,23,07,15,51.50
2018,01,23,07,16,51.50
2018,01,23,07,17,61.20
2018,01,23,07,18,56.30
2018,01,23,07,19,67.60
2018,01,23,07,20,61.20
2018,01,23,07,21,51.50
2018,01,23,07,22,56.30
2018,01,23,07,23,67.60
2018,01,23,07,24,61.20
2018,01,23,07,25,66.00
2018,01,23,07,26,59.50
2018,01,23,07,27,64.40
2018,01,23,07,28,66.00
2018,01,23,07,29,74.00
2018,01,23,07,30,59.50
2018,01,23,07,31,59.50
2018,01,23,07,32,46.70
2018,01,23,07,33,56.30
2018,01,23,07,34,62.70
2018,01,23,07,35,59.50
2018,01,23,07,36,48.30
2018,01,23,07,37,56.30
2018,01,23,07,38,53.10
2018,01,23,07,39,51.50
2018,01,23,07,40,45.10
2018,01,23,07,41,64.40
2018,01,23,07,42,48.30
2018,01,23,07,43,56.30
2018,01,23,07,44,54.70
2018,01,23,07,45,49.90
2018,01,23,07,46,56.30
2018,01,23,07,47,51.50
2018,01,23,07,48,46.70
2018,01,23,07,49,48.30
2018,01,23,07,50,61.20
2018,01,23,07,51,62.70
2018,01,23,07,52,67.60
2018,01,23,07,53,75.60
2018,01,23,07,54,74.00
2018,01,23,07,55,64.40
2018,01,23,07,56,61.20
2018,01,23,07,57,57.90
2018,01,23,07,58,67.60
2018,01,23,07,59,56.30
2018,01,23,08,00,53.10
2018,01,23,08,01,66.00
2018,01,23,08,02,64.40
2018,01,23,08,03,66.00
2018,01,23,08,04,80.50
2018,01,23,08,05,64.40
2018,01,23,08,06,62.70
2018,01,23,08,07,67.60
2018,01,23,08,08,72.40
2018,01,23,08,09,62.70
2018,01,23,08,10,53.10
2018,01,23,08,11,67.60
2018,01,23,08,12,67.60
2018,01,23,08,13,62.70
2018,01,23,08,14,59.50
2018,01,23,08,15,62.70
2018,01,23,08,16,56.30
2018,01,23,08,17,64.40
2018,01,23,08,18,70.80
2018,01,23,08,19,59.50
2018,01,23,08,20,62.70
2018,01,23,08,21,69.20
2018,01,23,08,22,57.90
2018,01,23,08,23,64.40
2018,01,23,08,24,62.70
2018,01,23,08,25,57.90
2018,01,23,08,26,69.20
2018,01,23,08,27,67.60
2018,01,23,08,28,64.40
2018,01,23,08,29,59.50
2018,01,23,08,30,62.70
2018,01,23,08,31,49.90
2018,01,23,08,32,51.50
2018,01,23,08,33,48.30
2018,01,23,08,34,57.90
2018,01,23,08,35,57.90
2018,01,23,08,36,49.90
2018,01,23,08,37,62.70
2018,01,23,08,38,57.90
2018,01,23,08,39,48.30
2018,01,23,08,40,46.70
2018,01,23,08,41,40.20
2018,01,23,08,42,46.70
2018,01,23,08,43,66.00
2018,01,23,08,44,62.70
2018,01,23,08,45,69.20
2018,01,23,08,46,56.30
2018,01,23,08,47,51.50
2018,01,23,08,48,66.00
2018,01,23,08,49,72.40
2018,01,23,08,50,64.40
2018,01,23,08,51,66.00
2018,01,23,08,52,62.70
2018,01,23,08,53,74.00
2018,01,23,08,54,67.60
2018,01,23,08,55,69.20
2018,01,23,08,56,62.70
2018,01,23,08,57,43.50
2018,01,23,08,58,51.50
2018,01,23,08,59,69.20
2018,01,23,09,00,54.70
2018,01,23,09,01,54.70
2018,01,23,09,02,53.10
2018,01,23,09,03,67.60
2018,01,23,09,04,64.40
2018,01,23,09,05,67.60
2018,01,23,09,06,64.40
2018,01,23,09,07,54.70
2018,01,23,09,08,61.20
2018,01,23,09,09,59.50
2018,01,23,09,10,69.20
2018,01,23,09,11,56.30
2018,01,23,09,12,61.20
2018,01,23,09,13,53.10
2018,01,23,09,14,54.70
2018,01,23,09,15,72.40
2018,01,23,09,16,66.00
2018,01,23,09,17,49.90
2018,01,23,09,18,61.20
2018,01,23,09,19,62.70
2018,01,23,09,20,69.20
2018,01,23,09,21,74.00
2018,01,23,09,22,69.20
2018,01,23,09,23,45.10
2018,01,23,09,24,57.90
2018,01,23,09,25,43.50
2018,01,23,09,26,53.10
2018,01,23,09,27,72.40
2018,01,23,09,28,67.60
2018,01,23,09,29,61.20
2018,01,23,09,30,70.80
2018,01,23,09,31,70.80
2018,01,23,09,32,66.00
2018,01,23,09,33,57.90
2018,01,23,09,34,51.50
2018,01,23,09,35,57.90
2018,01,23,09,36,53.10
2018,01,23,09,37,45.10
2018,01,23,09,38,48.30
2018,01,23,09,39,53.10
2018,01,23,09,40,57.90
2018,01,23,09,41,54.70
2018,01,23,09,42,78.80
2018,01,23,09,43,59.50
2018,01,23,09,44,56.30
2018,01,23,09,45,53.10
2018,01,23,09,46,51.50
2018,01,23,09,47,56.30
2018,01,23,09,48,59.50
2018,01,23,09,49,53.10
2018,01,23,09,50,62.70
2018,01,23,09,51,59.50
2018,01,23,09,52,57.90
2018,01,23,09,53,64.40
2018,01,23,09,54,59.50
2018,01,23,09,55,59.50
2018,01,23,09,56,48.30
2018,01,23,09,57,59.50
2018,01,23,09,58,61.20
2018,01,23,09,59,51.50
2018,01,23,10,00,51.50
2018,01,23,10,01,61.20
2018,01,23,10,02,66.00
2018,01,23,10,03,67.60
2018,01,23,10,04,70.80
2018,01,23,10,05,77.30
2018,01,23,10,06,67.60
2018,01,23,10,07,85.30
2018,01,23,10,08,70.80
2018,01,23,10,09,75.60
2018,01,23,10,10,67.60
2018,01,23,10,11,46.70
2018,01,23,10,12,59.50
2018,01,23,10,13,70.80
2018,01,23,10,14,64.40
2018,01,23,10,15,62.70
2018,01,23,10,16,59.50
2018,01,23,10,17,57.90
2018,01,23,10,18,46.70
2018,01,23,10,19,66.00
2018,01,23,10,20,56.30
2018,01,23,10,21,49.90
2018,01,23,10,22,54.70
2018,01,23,10,23,59.50
2018,01,23,10,24,54.70
2018,01,23,10,25,61.20
2018,01,23,10,26,59.50
2018,01,23,10,27,51.50
2018,01,23,10,28,57.90
2018,01,23,10,29,62.70
2018,01,23,10,30,66.00
2018,01,23,10,31,54.70
2018,01,23,10,32,62.70
2018,01,23,10,33,61.20
2018,01,23,10,34,62.70
2018,01,23,10,35,64.40
2018,01,23,10,36,69.20
2018,01,23,10,37,66.00
2018,01,23,10,38,61.20
2018,01,23,10,39,51.50
2018,01,23,10,40,64.40
2018,01,23,10,41,57.90
2018,01,23,10,42,56.30
2018,01,23,10,43,64.40
2018,01,23,10,44,62.70
2018,01,23,10,45,61.20
2018,01,23,10,46,64.40
2018,01,23,10,47,62.70
2018,01,23,10,48,56.30
2018,01,23,10,49,51.50
2018,01,23,10,50,59.50
2018,01,23,10,51,59.50
2018,01,23,10,52,54.70
2018,01,23,10,53,57.90
2018,01,23,10,54,57.90
2018,01,23,10,55,40.20
2018,01,23,10,56,61.20
2018,01,23,10,57,62.70
2018,01,23,10,58,57.90
2018,01,23,10,59,38.60
2018,01,23,11,00,64.40
2018,01,23,11,01,69.20
2018,01,23,11,02,61.20
2018,01,23,11,03,67.60
2018,01,23,11,04,56.30
2018,01,23,11,05,54.70
2018,01,23,11,06,51.50
2018,01,23,11,07,56.30
2018,01,23,11,08,70.80
2018,01,23,11,09,69.20
2018,01,23,11,10,75.60
2018,01,23,11,11,62.70
2018,01,23,11,12,66.00
2018,01,23,11,13,70.80
2018,01,23,11,14,56.30
2018,01,23,11,15,49.90
2018,01,23,11,16,49.90
2018,01,23,11,17,59.50
2018,01,23,11,18,57.90
2018,01,23,11,19,56.30
2018,01,23,11,20,56.30
2018,01,23,11,21,61.20
2018,01,23,11,22,66.00
2018,01,23,11,23,56.30
2018,01,23,11,24,59.50
2018,01,23,11,25,56.30
2018,01,23,11,26,49.90
2018,01,23,11,27,61.20
2018,01,23,11,28,56.30
2018,01,23,11,29,59.50
2018,01,23,11,30,51.50
2018,01,23,11,31,57.90
2018,01,23,11,32,54.70
2018,01,23,11,33,54.70
2018,01,23,11,34,43.50
2018,01,23,11,35,53.10
2018,01,23,11,36,59.50
2018,01,23,11,37,64.40
2018,01,23,11,38,61.20
2018,01,23,11,39,64.40
2018,01,23,11,40,80.50
2018,01,23,11,41,75.60
2018,01,23,11,42,74.00
2018,01,23,11,43,77.30
2018,01,23,11,44,69.20
2018,01,23,11,45,70.80
2018,01,23,11,46,66.00
2018,01,23,11,47,75.60
2018,01,23,11,48,61.20
2018,01,23,11,49,69.20
2018,01,23,11,50,59.50
2018,01,23,11,51,57.90
2018,01,23,11,52,59.50
2018,01,23,11,53,64.40
2018,01,23,11,54,66.00
2018,01,23,11,55,62.70
2018,01,23,11,56,67.60
2018,01,23,11,57,67.60
2018,01,23,11,58,56.30
2018,01,23,11,59,46.70
2018,01,23,12,00,38.60
2018,01,23,12,01,43.50
2018,01,23,12,02,41.80
2018,01,23,12,03,41.80
2018,01,23,12,04,46.70
2018,01,23,12,05,45.10
2018,01,23,12,06,41.80
2018,01,23,12,07,32.20
2018,01,23,12,08,38.60
2018,01,23,12,09,43.50
2018,01,23,12,10,43.50
2018,01,23,12,11,46.70
2018,01,23,12,12,41.80
2018,01,23,12,13,38.60
2018,01,23,12,14,35.40
2018,01,23,12,15,32.20
2018,01,23,12,16,35.40
2018,01,23,12,17,35.40
2018,01,23,12,18,45.10
2018,01,23,12,19,57.90
2018,01,23,12,20,45.10
2018,01,23,12,21,43.50
2018,01,23,12,22,37.00
2018,01,23,12,23,41.80
2018,01,23,12,24,49.90
2018,01,23,12,25,48.30
2018,01,23,12,26,46.70
2018,01,23,12,27,56.30
2018,01,23,12,28,46.70
2018,01,23,12,29,35.40
2018,01,23,12,30,57.90
2018,01,23,12,31,51.50
2018,01,23,12,32,51.50
2018,01,23,12,33,40.20
2018,01,23,12,34,43.50
2018,01,23,12,35,40.20
2018,01,23,12,36,38.60
2018,01,23,12,37,43.50
2018,01,23,12,38,41.80
2018,01,23,12,39,27.40
2018,01,23,12,40,46.70
2018,01,23,12,41,53.10
2018,01,23,12,42,61.20
2018,01,23,12,43,40.20
2018,01,23,12,44,45.10
2018,01,23,12,45,41.80
2018,01,23,12,46,38.60
2018,01,23,12,47,56.30
2018,01,23,12,48,48.30
2018,01,23,12,49,48.30
2018,01,23,12,50,45.10
2018,01,23,12,51,41.80
2018,01,23,12,52,57.90
2018,01,23,12,53,46.70
2018,01,23,12,54,48.30
2018,01,23,12,55,32.20
2018,01,23,12,56,53.10
2018,01,23,12,57,45.10
2018,01,23,12,58,59.50
2018,01,23,12,59,40.20
2018,01,23,13,00,41.80
2018,01,23,13,01,35.40
2018,01,23,13,02,41.80
2018,01,23,13,03,46.70
2018,01,23,13,04,41.80
2018,01,23,13,05,56.30
2018,01,23,13,06,37.00
2018,01,23,13,07,43.50
2018,01,23,13,08,56.30
2018,01,23,13,09,45.10
2018,01,23,13,10,32.20
2018,01,23,13,11,46.70
2018,01,23,13,12,38.60
2018,01,23,13,13,45.10
2018,01,23,13,14,38.60
2018,01,23,13,15,45.10
2018,01,23,13,16,45.10
2018,01,23,13,17,41.80
2018,01,23,13,18,33.80
2018,01,23,13,19,48.30
2018,01,23,13,20,43.50
2018,01,23,13,21,43.50
2018,01,23,13,22,51.50
2018,01,23,13,23,43.50
2018,01,23,13,24,46.70
2018,01,23,13,25,64.40
2018,01,23,13,26,56.30
2018,01,23,13,27,41.80
2018,01,23,13,28,46.70
2018,01,23,13,29,53.10
2018,01,23,13,30,45.10
2018,01,23,13,31,35.40
2018,01,23,13,32,46.70
2018,01,23,13,33,37.00
2018,01,23,13,34,41.80
2018,01,23,13,35,46.70
2018,01,23,13,36,43.50
2018,01,23,13,37,45.10
2018,01,23,13,38,40.20
2018,01,23,13,39,51.50
2018,01,23,13,40,45.10
2018,01,23,13,41,48.30
2018,01,23,13,42,51.50
2018,01,23,13,43,35.40
2018,01,23,13,44,37.00
2018,01,23,13,45,43.50
2018,01,23,13,46,38.60
2018,01,23,13,47,38.60
2018,01,23,13,48,46.70
2018,01,23,13,49,51.50
2018,01,23,13,50,37.00
2018,01,23,13,51,45.10
2018,01,23,13,52,40.20
2018,01,23,13,53,48.30
2018,01,23,13,54,43.50
2018,01,23,13,55,46.70
2018,01,23,13,56,45.10
2018,01,23,13,57,51.50
2018,01,23,13,58,49.90
2018,01,23,13,59,45.10
2018,01,23,14,00,45.10
2018,01,23,14,01,41.80
2018,01,23,14,02,40.20
2018,01,23,14,03,46.70
2018,01,23,14,04,45.10
2018,01,23,14,05,40.20
2018,01,23,14,06,45.10
2018,01,23,14,07,54.70
2018,01,23,14,08,38.60
2018,01,23,14,09,37.00
2018,01,23,14,10,38.60
2018,01,23,14,11,37.00
2018,01,23,14,12,41.80
2018,01,23,14,13,33.80
2018,01,23,14,14,38.60
2018,01,23,14,15,48.30
2018,01,23,14,16,43.50
2018,01,23,14,17,48.30
2018,01,23,14,18,37.00
2018,01,23,14,19,33.80
2018,01,23,14,20,45.10
2018,01,23,14,21,33.80
2018,01,23,14,22,38.60
2018,01,23,14,23,35.40
2018,01,23,14,24,38.60
2018,01,23,14,25,40.20
2018,01,23,14,26,37.00
2018,01,23,14,27,40.20
2018,01,23,14,28,43.50
2018,01,23,14,29,41.80
2018,01,23,14,30,41.80
2018,01,23,14,31,41.80
2018,01,23,14,32,33.80
2018,01,23,14,33,43.50
2018,01,23,14,34,29.00
2018,01,23,14,35,38.60
2018,01,23,14,36,33.80
2018,01,23,14,37,38.60
2018,01,23,14,38,45.10
2018,01,23,14,39,41.80
2018,01,23,14,40,41.80
2018,01,23,14,41,46.70
2018,01,23,14,42,48.30
2018,01,23,14,43,35.40
2018,01,23,14,44,41.80
2018,01,23,14,45,40.20
2018,01,23,14,46,35.40
2018,01,23,14,47,41.80
2018,01,23,14,48,38.60
2018,01,23,14,49,32.20
2018,01,23,14,50,37.00
2018,01,23,14,51,43.50
2018,01,23,14,52,48.30
2018,01,23,14,53,53.10
2018,01,23,14,54,54.70
2018,01,23,14,55,48.30
2018,01,23,14,56,48.30
2018,01,23,14,57,41.80
2018,01,23,14,58,40.20
2018,01,23,14,59,40.20
2018,01,23,15,00,51.50
2018,01,23,15,01,53.10
2018,01,23,15,02,45.10
2018,01,23,15,03,46.70
2018,01,23,15,04,43.50
2018,01,23,15,05,45.10
2018,01,23,15,06,43.50
2018,01,23,15,07,43.50
2018,01,23,15,08,46.70
2018,01,23,15,09,27.40
2018,01,23,15,10,45.10
2018,01,23,15,11,41.80
2018,01,23,15,12,49.90
2018,01,23,15,13,46.70
2018,01,23,15,14,45.10
2018,01,23,15,15,46.70
2018,01,23,15,16,37.00
2018,01,23,15,17,40.20
2018,01,23,15,18,43.50
2018,01,23,15,19,45.10
2018,01,23,15,20,45.10
2018,01,23,15,21,32.20
2018,01,23,15,22,45.10
2018,01,23,15,23,46.70
2018,01,23,15,24,48.30
2018,01,23,15,25,38.60
2018,01,23,15,26,33.80
2018,01,23,15,27,41.80
2018,01,23,15,28,41.80
2018,01,23,15,29,48.30
2018,01,23,15,30,51.50
2018,01,23,15,31,38.60
2018,01,23,15,32,49.90
2018,01,23,15,33,37.00
2018,01,23,15,34,41.80
2018,01,23,15,35,41.80
2018,01,23,15,36,30.60
2018,01,23,15,37,37.00
2018,01,23,15,38,35.40
2018,01,23,15,39,32.20
2018,01,23,15,40,49.90
2018,01,23,15,41,46.70
2018,01,23,15,42,45.10
2018,01,23,15,43,38.60
2018,01,23,15,44,48.30
2018,01,23,15,45,37.00
2018,01,23,15,46,35.40
2018,01,23,15,47,38.60
2018,01,23,15,48,27.40
2018,01,23,15,49,46.70
2018,01,23,15,50,41.80
2018,01,23,15,51,43.50
2018,01,23,15,52,37.00
2018,01,23,15,53,25.70
2018,01,23,15,54,46.70
2018,01,23,15,55,41.80
2018,01,23,15,56,40.20
2018,01,23,15,57,30.60
2018,01,23,15,58,35.40
2018,01,23,15,59,35.40
2018,01,23,16,00,37.00
2018,01,23,16,01,41.80
2018,01,23,16,02,29.00
2018,01,23,16,03,45.10
2018,01,23,16,04,32.20
2018,01,23,16,05,45.10
2018,01,23,16,06,35.40
2018,01,23,16,07,37.00
2018,01,23,16,08,37.00
2018,01,23,16,09,29.00
2018,01,23,16,10,35.40
2018,01,23,16,11,29.00
2018,01,23,16,12,38.60
2018,01,23,16,13,35.40
2018,01,23,16,14,33.80
2018,01,23,16,15,30.60
2018,01,23,16,16,32.20
2018,01,23,16,17,35.40
2018,01,23,16,18,40.20
2018,01,23,16,19,37.00
2018,01,23,16,20,37.00
2018,01,23,16,21,45.10
2018,01,23,16,22,51.50
2018,01,23,16,23,41.80
2018,01,23,16,24,35.40
2018,01,23,16,25,40.20
2018,01,23,16,26,37.00
2018,01,23,16,27,45.10
2018,01,23,16,28,57.90
2018,01,23,16,29,53.10
2018,01,23,16,30,61.20
2018,01,23,16,31,59.50
2018,01,23,16,32,51.50
2018,01,23,16,33,40.20
2018,01,23,16,34,49.90
2018,01,23,16,35,53.10
2018,01,23,16,36,45.10
2018,01,23,16,37,46.70
2018,01,23,16,38,38.60
2018,01,23,16,39,56.30
2018,01,23,16,40,53.10
2018,01,23,16,41,49.90
2018,01,23,16,42,38.60
2018,01,23,16,43,53.10
2018,01,23,16,44,54.70
2018,01,23,16,45,53.10
2018,01,23,16,46,51.50
2018,01,23,16,47,51.50
2018,01,23,16,48,49.90
2018,01,23,16,49,41.80
2018,01,23,16,50,51.50
2018,01,23,16,51,49.90
2018,01,23,16,52,51.50
2018,01,23,16,53,49.90
2018,01,23,16,54,56.30
2018,01,23,16,55,46.70
2018,01,23,16,56,51.50
2018,01,23,16,57,51.50
2018,01,23,16,58,45.10
2018,01,23,16,59,45.10
2018,01,23,17,00,51.50
2018,01,23,17,01,41.80
2018,01,23,17,02,48.30
2018,01,23,17,03,49.90
2018,01,23,17,04,48.30
2018,01,23,17,05,46.70
2018,01,23,17,06,51.50
2018,01,23,17,07,45.10
2018,01,23,17,08,40.20
2018,01,23,17,09,51.50
2018,01,23,17,10,56.30
2018,01,23,17,11,49.90
2018,01,23,17,12,48.30
2018,01,23,17,13,51.50
2018,01,23,17,14,51.50
2018,01,23,17,15,51.50
2018,01,23,17,16,48.30
2018,01,23,17,17,40.20
2018,01,23,17,18,48.30
2018,01,23,17,19,54.70